CPA424 VHHH-RCKH

Flight info

Callsign CPA424
Flight time 1h 2m
Altitude 39000
Route DALOL V631 ENVAR M750 DADON G581 PORCH
Aircraft A333/H-SDE3GHIJ2J3J5M1RVWXY/LB2D1

Departure

Time 2026-04-22 08:54
Airport Hong Kong International Airport (VHHH)

Arrival

Time 2026-04-22 09:57
Airport Kaohsiung International Airport (RCKH)
Time Latitude Longitude Altitude Speed Heading
2026-04-22 08:49 22.31302 113.93044 40 ft 1 kts 353°
2026-04-22 08:49 22.31292 113.93047 40 ft 2 kts 332°
2026-04-22 08:49 22.31279 113.93057 40 ft 2 kts 322°
2026-04-22 08:49 22.31267 113.93067 40 ft 2 kts 309°
2026-04-22 08:50 22.31259 113.93080 40 ft 2 kts 297°
2026-04-22 08:50 22.31254 113.93095 40 ft 2 kts 285°
2026-04-22 08:50 22.31251 113.93111 40 ft 2 kts 272°
2026-04-22 08:50 22.31252 113.93126 40 ft 2 kts 260°
2026-04-22 08:51 22.31254 113.93137 40 ft 0 kts 251°
2026-04-22 08:51 22.31255 113.93140 40 ft 0 kts 250°
2026-04-22 08:52 22.31254 113.93137 40 ft 2 kts 250°
2026-04-22 08:52 22.31173 113.93090 40 ft 25 kts 164°
2026-04-22 08:53 22.30965 113.93169 40 ft 33 kts 150°
2026-04-22 08:53 22.30804 113.93209 40 ft 20 kts 208°
2026-04-22 08:53 22.30709 113.93107 40 ft 18 kts 235°
2026-04-22 08:53 22.30637 113.92954 40 ft 40 kts 249°
2026-04-22 08:54 22.30458 113.92400 40 ft 112 kts 250°
2026-04-22 08:54 22.30134 113.91396 77 ft 165 kts 248°
2026-04-22 08:54 22.29761 113.90268 847 ft 158 kts 247°
2026-04-22 08:54 22.29428 113.89198 1705 ft 151 kts 247°
2026-04-22 08:55 22.29091 113.88137 2195 ft 153 kts 246°
2026-04-22 08:55 22.28715 113.87008 2510 ft 166 kts 246°
2026-04-22 08:55 22.28173 113.85847 2767 ft 184 kts 230°
2026-04-22 08:55 22.27399 113.84682 3232 ft 199 kts 234°
2026-04-22 08:56 22.26614 113.83443 3957 ft 202 kts 234°
2026-04-22 08:56 22.25808 113.82191 4673 ft 204 kts 230°
2026-04-22 08:56 22.24643 113.81342 5289 ft 214 kts 199°
2026-04-22 08:56 22.23083 113.81228 5769 ft 233 kts 184°
2026-04-22 08:57 22.21426 113.81199 6317 ft 244 kts 186°
2026-04-22 08:57 22.19719 113.81473 6971 ft 259 kts 162°
2026-04-22 08:57 22.18238 113.82640 7624 ft 276 kts 134°
2026-04-22 08:57 22.17023 113.84266 8324 ft 280 kts 135°
2026-04-22 08:58 22.15905 113.86011 8931 ft 291 kts 116°
2026-04-22 08:58 22.15149 113.88085 9259 ft 303 kts 114°
2026-04-22 08:58 22.14369 113.90171 10214 ft 296 kts 114°
2026-04-22 08:58 22.13695 113.92245 10923 ft 298 kts 102°
2026-04-22 08:59 22.13477 113.94511 11282 ft 314 kts 95°
2026-04-22 08:59 22.13267 113.96934 11613 ft 332 kts 96°
2026-04-22 08:59 22.13043 113.99452 11820 ft 353 kts 96°
2026-04-22 08:59 22.12797 114.02184 11975 ft 374 kts 96°
2026-04-22 09:00 22.12542 114.05020 12165 ft 391 kts 96°
2026-04-22 09:00 22.12142 114.07978 12416 ft 402 kts 103°
2026-04-22 09:00 22.11615 114.10936 13047 ft 404 kts 101°
2026-04-22 09:00 22.11106 114.13913 13599 ft 407 kts 101°
2026-04-22 09:01 22.10594 114.16926 14093 ft 410 kts 101°
2026-04-22 09:01 22.10076 114.19970 14589 ft 414 kts 101°
2026-04-22 09:01 22.09554 114.23041 15045 ft 417 kts 101°
2026-04-22 09:01 22.09032 114.26121 15492 ft 420 kts 101°
2026-04-22 09:02 22.08501 114.29250 15930 ft 423 kts 101°
2026-04-22 09:02 22.07965 114.32407 16322 ft 427 kts 101°
2026-04-22 09:02 22.07293 114.35513 16699 ft 429 kts 110°
2026-04-22 09:02 22.05886 114.38344 17081 ft 429 kts 126°
2026-04-22 09:03 22.04185 114.41000 17505 ft 430 kts 126°
2026-04-22 09:03 22.02517 114.43636 17856 ft 434 kts 126°
2026-04-22 09:03 22.00808 114.46344 18210 ft 437 kts 125°
2026-04-22 09:03 21.99093 114.49065 18646 ft 439 kts 125°
2026-04-22 09:04 21.97371 114.51794 19049 ft 441 kts 125°
2026-04-22 09:04 21.95589 114.54500 19388 ft 443 kts 128°
2026-04-22 09:04 21.93710 114.57147 19737 ft 446 kts 128°
2026-04-22 09:04 21.91840 114.59798 20116 ft 447 kts 128°
2026-04-22 09:05 21.89963 114.62463 20494 ft 449 kts 128°
2026-04-22 09:05 21.88071 114.65147 20843 ft 451 kts 128°
2026-04-22 09:05 21.86170 114.67846 21124 ft 454 kts 128°
2026-04-22 09:05 21.84266 114.70546 21467 ft 456 kts 128°
2026-04-22 09:06 21.82337 114.73281 21805 ft 457 kts 128°
2026-04-22 09:06 21.80422 114.75993 22104 ft 459 kts 128°
2026-04-22 09:06 21.78476 114.78750 22405 ft 461 kts 128°
2026-04-22 09:06 21.76525 114.81523 22668 ft 463 kts 127°
2026-04-22 09:07 21.74994 114.84583 22922 ft 467 kts 110°
2026-04-22 09:07 21.74299 114.87961 23203 ft 468 kts 94°
2026-04-22 09:07 21.74311 114.91485 23470 ft 469 kts 88°
2026-04-22 09:07 21.74344 114.94985 23703 ft 472 kts 89°
2026-04-22 09:08 21.74355 114.98507 23966 ft 475 kts 89°
2026-04-22 09:08 21.74359 115.02071 24241 ft 476 kts 89°
2026-04-22 09:08 21.74358 115.05637 24493 ft 479 kts 89°
2026-04-22 09:08 21.74356 115.09234 24694 ft 482 kts 89°
2026-04-22 09:09 21.74353 115.12811 24999 ft 483 kts 89°
2026-04-22 09:09 21.74349 115.16429 25276 ft 485 kts 89°
2026-04-22 09:09 21.74343 115.20029 25491 ft 487 kts 89°
2026-04-22 09:09 21.74338 115.23677 25731 ft 489 kts 89°
2026-04-22 09:10 21.74331 115.27349 25997 ft 491 kts 89°
2026-04-22 09:10 21.74323 115.31032 26286 ft 492 kts 89°
2026-04-22 09:10 21.74315 115.34694 26540 ft 493 kts 89°
2026-04-22 09:10 21.74305 115.38378 26733 ft 496 kts 89°
2026-04-22 09:11 21.74296 115.42095 26981 ft 498 kts 89°
2026-04-22 09:11 21.74285 115.45796 27228 ft 500 kts 89°
2026-04-22 09:11 21.74273 115.49524 27449 ft 502 kts 89°
2026-04-22 09:11 21.74261 115.53297 27677 ft 503 kts 89°
2026-04-22 09:12 21.74247 115.57068 27873 ft 506 kts 89°
2026-04-22 09:12 21.74233 115.60826 28074 ft 508 kts 89°
2026-04-22 09:12 21.74220 115.64659 28288 ft 510 kts 89°
2026-04-22 09:12 21.74205 115.68467 28435 ft 512 kts 89°
2026-04-22 09:13 21.74189 115.72305 28591 ft 514 kts 89°
2026-04-22 09:13 21.74173 115.76141 28837 ft 515 kts 89°
2026-04-22 09:13 21.74154 115.79992 29082 ft 515 kts 89°
2026-04-22 09:13 21.74136 115.83804 29321 ft 516 kts 89°
2026-04-22 09:14 21.74116 115.87633 29622 ft 515 kts 89°
2026-04-22 09:14 21.74097 115.91462 29941 ft 514 kts 89°
2026-04-22 09:14 21.74074 115.95339 30245 ft 513 kts 88°
2026-04-22 09:14 21.74053 115.99121 30512 ft 513 kts 88°
2026-04-22 09:15 21.74030 116.02973 30840 ft 512 kts 88°
2026-04-22 09:15 21.74007 116.06799 31192 ft 511 kts 88°
2026-04-22 09:15 21.73983 116.10558 31515 ft 510 kts 88°
2026-04-22 09:15 21.73957 116.14379 31850 ft 508 kts 88°
2026-04-22 09:16 21.73931 116.18173 32156 ft 508 kts 87°
2026-04-22 09:16 21.73904 116.21949 32419 ft 508 kts 87°
2026-04-22 09:16 21.73877 116.25791 32769 ft 507 kts 87°
2026-04-22 09:16 21.73849 116.29574 33120 ft 506 kts 87°
2026-04-22 09:17 21.73820 116.33385 33524 ft 504 kts 87°
2026-04-22 09:17 21.73790 116.37128 33885 ft 504 kts 87°
2026-04-22 09:17 21.73759 116.40916 34240 ft 503 kts 87°
2026-04-22 09:17 21.73727 116.44694 34627 ft 501 kts 88°
2026-04-22 09:18 21.73695 116.48425 35033 ft 500 kts 88°
2026-04-22 09:18 21.73661 116.52148 35445 ft 498 kts 88°
2026-04-22 09:18 21.73627 116.55878 35830 ft 497 kts 88°
2026-04-22 09:18 21.73592 116.59586 36141 ft 497 kts 88°
2026-04-22 09:19 21.73557 116.63298 36476 ft 496 kts 88°
2026-04-22 09:19 21.73521 116.67018 36773 ft 496 kts 88°
2026-04-22 09:19 21.73483 116.70713 37060 ft 495 kts 88°
2026-04-22 09:19 21.73445 116.74400 37376 ft 494 kts 88°
2026-04-22 09:20 21.73611 116.78028 37666 ft 489 kts 78°
2026-04-22 09:20 21.74432 116.81543 37852 ft 483 kts 66°
2026-04-22 09:20 21.75691 116.84888 37809 ft 487 kts 64°
2026-04-22 09:21 21.78196 116.91705 37831 ft 494 kts 65°
2026-04-22 09:21 21.80690 116.98592 37825 ft 490 kts 65°
2026-04-22 09:22 21.83139 117.05368 37824 ft 486 kts 65°
2026-04-22 09:22 21.85587 117.12153 37827 ft 488 kts 65°
2026-04-22 09:23 21.88031 117.18941 37836 ft 489 kts 65°
2026-04-22 09:23 21.90489 117.25773 37840 ft 488 kts 65°
2026-04-22 09:24 21.92930 117.32568 37840 ft 489 kts 65°
2026-04-22 09:24 21.95376 117.39390 37841 ft 488 kts 65°
2026-04-22 09:25 21.97809 117.46184 37842 ft 489 kts 65°
2026-04-22 09:25 22.00656 117.52769 37839 ft 483 kts 53°
2026-04-22 09:26 22.04231 117.58904 37828 ft 484 kts 54°
2026-04-22 09:26 22.07721 117.65041 37828 ft 484 kts 55°
2026-04-22 09:27 22.11250 117.71261 37829 ft 485 kts 55°
2026-04-22 09:27 22.14753 117.77446 37819 ft 486 kts 55°
2026-04-22 09:28 22.18294 117.83707 37817 ft 486 kts 55°
2026-04-22 09:28 22.21803 117.89917 37817 ft 487 kts 55°
2026-04-22 09:29 22.25287 117.96124 37816 ft 487 kts 57°
2026-04-22 09:29 22.26646 117.99502 37812 ft 493 kts 70°
2026-04-22 09:29 22.27333 118.03146 37842 ft 497 kts 82°
2026-04-22 09:29 22.27324 118.06852 37817 ft 501 kts 95°
2026-04-22 09:30 22.26686 118.10579 37850 ft 502 kts 100°
2026-04-22 09:30 22.25685 118.17951 37821 ft 497 kts 96°
2026-04-22 09:31 22.24822 118.25327 37823 ft 493 kts 96°
2026-04-22 09:31 22.23973 118.32654 37824 ft 496 kts 95°
2026-04-22 09:32 22.23115 118.40039 37827 ft 496 kts 95°
2026-04-22 09:32 22.22682 118.43751 37365 ft 504 kts 95°
2026-04-22 09:32 22.22248 118.47475 36558 ft 506 kts 95°
2026-04-22 09:32 22.21807 118.51237 35880 ft 504 kts 95°
2026-04-22 09:33 22.21368 118.54984 35191 ft 503 kts 96°
2026-04-22 09:33 22.20937 118.58661 34541 ft 501 kts 96°
2026-04-22 09:33 22.20499 118.62381 33902 ft 499 kts 96°
2026-04-22 09:33 22.20059 118.66119 33252 ft 497 kts 96°
2026-04-22 09:34 22.19628 118.69771 32576 ft 497 kts 96°
2026-04-22 09:34 22.19193 118.73449 31873 ft 498 kts 96°
2026-04-22 09:34 22.18750 118.77182 31168 ft 499 kts 96°
2026-04-22 09:35 22.17878 118.84522 30029 ft 495 kts 96°
2026-04-22 09:35 22.17439 118.88199 29514 ft 492 kts 96°
2026-04-22 09:35 22.17004 118.91842 28988 ft 489 kts 96°
2026-04-22 09:35 22.16575 118.95428 28454 ft 486 kts 96°
2026-04-22 09:36 22.16109 118.99012 27865 ft 484 kts 99°
2026-04-22 09:36 22.15516 119.02594 27274 ft 482 kts 99°
2026-04-22 09:36 22.14943 119.06103 26737 ft 479 kts 99°
2026-04-22 09:36 22.14501 119.09637 26237 ft 474 kts 96°
2026-04-22 09:37 22.14102 119.13180 25757 ft 469 kts 96°
2026-04-22 09:37 22.13708 119.16627 25288 ft 464 kts 96°
2026-04-22 09:37 22.13316 119.20028 24817 ft 460 kts 96°
2026-04-22 09:37 22.12924 119.23434 24312 ft 455 kts 97°
2026-04-22 09:38 22.12533 119.26802 23795 ft 452 kts 97°
2026-04-22 09:38 22.12147 119.30135 23266 ft 448 kts 97°
2026-04-22 09:38 22.11762 119.33461 22733 ft 445 kts 97°
2026-04-22 09:38 22.11379 119.36751 22187 ft 442 kts 97°
2026-04-22 09:39 22.10999 119.40002 21674 ft 438 kts 97°
2026-04-22 09:39 22.10623 119.43218 21163 ft 434 kts 97°
2026-04-22 09:39 22.10247 119.46439 20664 ft 429 kts 97°
2026-04-22 09:39 22.09877 119.49594 20171 ft 425 kts 97°
2026-04-22 09:40 22.09511 119.52715 19688 ft 420 kts 97°
2026-04-22 09:40 22.09147 119.55813 19205 ft 415 kts 97°
2026-04-22 09:40 22.08789 119.58852 18736 ft 409 kts 97°
2026-04-22 09:40 22.08433 119.61867 18266 ft 405 kts 97°
2026-04-22 09:41 22.08078 119.64877 17797 ft 400 kts 97°
2026-04-22 09:41 22.07722 119.67821 17326 ft 395 kts 97°
2026-04-22 09:41 22.07360 119.70714 16874 ft 391 kts 97°
2026-04-22 09:41 22.07001 119.73586 16414 ft 387 kts 97°
2026-04-22 09:42 22.06644 119.76430 15954 ft 383 kts 97°
2026-04-22 09:42 22.06288 119.79268 15484 ft 380 kts 97°
2026-04-22 09:42 22.05934 119.82088 15021 ft 377 kts 97°
2026-04-22 09:42 22.05583 119.84872 14544 ft 374 kts 97°
2026-04-22 09:43 22.05238 119.87620 14069 ft 372 kts 97°
2026-04-22 09:43 22.04890 119.90379 13582 ft 370 kts 97°
2026-04-22 09:43 22.04545 119.93107 13091 ft 368 kts 97°
2026-04-22 09:43 22.04348 119.95824 12589 ft 365 kts 85°
2026-04-22 09:44 22.04960 119.98450 12115 ft 359 kts 64°
2026-04-22 09:44 22.06333 120.00632 11607 ft 352 kts 43°
2026-04-22 09:44 22.08106 120.02457 11174 ft 348 kts 41°
2026-04-22 09:44 22.09836 120.04250 10754 ft 345 kts 41°
2026-04-22 09:45 22.11550 120.06032 10371 ft 341 kts 41°
2026-04-22 09:45 22.13238 120.07791 10283 ft 329 kts 41°
2026-04-22 09:45 22.14865 120.09489 10168 ft 318 kts 41°
2026-04-22 09:45 22.16434 120.11131 10066 ft 307 kts 41°
2026-04-22 09:46 22.17943 120.12707 9916 ft 299 kts 41°
2026-04-22 09:46 22.19445 120.14276 9576 ft 298 kts 41°
2026-04-22 09:46 22.20926 120.15823 9295 ft 296 kts 40°
2026-04-22 09:46 22.22394 120.17357 9020 ft 293 kts 41°
2026-04-22 09:47 22.23857 120.18887 8750 ft 291 kts 41°
2026-04-22 09:47 22.25306 120.20403 8481 ft 289 kts 41°
2026-04-22 09:47 22.26740 120.21903 8238 ft 285 kts 41°
2026-04-22 09:47 22.28142 120.23371 8004 ft 282 kts 41°
2026-04-22 09:48 22.29547 120.24841 7734 ft 280 kts 41°
2026-04-22 09:48 22.30956 120.26317 7479 ft 278 kts 41°
2026-04-22 09:48 22.32339 120.27764 7222 ft 276 kts 41°
2026-04-22 09:48 22.33708 120.29199 6975 ft 274 kts 41°
2026-04-22 09:49 22.35072 120.30629 6730 ft 272 kts 42°
2026-04-22 09:49 22.36427 120.32050 6480 ft 270 kts 42°
2026-04-22 09:49 22.37772 120.33460 6240 ft 269 kts 42°
2026-04-22 09:49 22.39116 120.34871 5983 ft 267 kts 42°
2026-04-22 09:50 22.40451 120.36272 5729 ft 266 kts 42°
2026-04-22 09:50 22.41783 120.37669 5475 ft 265 kts 42°
2026-04-22 09:50 22.43103 120.39056 5215 ft 264 kts 42°
2026-04-22 09:50 22.44411 120.40429 4949 ft 264 kts 42°
2026-04-22 09:51 22.45740 120.41824 4679 ft 264 kts 42°
2026-04-22 09:51 22.47051 120.43202 4380 ft 265 kts 43°
2026-04-22 09:51 22.48388 120.44608 4080 ft 266 kts 43°
2026-04-22 09:51 22.49685 120.45972 3769 ft 260 kts 43°
2026-04-22 09:52 22.50957 120.47310 3584 ft 246 kts 43°
2026-04-22 09:52 22.52155 120.48570 3507 ft 230 kts 43°
2026-04-22 09:52 22.53262 120.49738 3434 ft 216 kts 42°
2026-04-22 09:52 22.54286 120.50816 3431 ft 195 kts 42°
2026-04-22 09:53 22.55248 120.51730 3335 ft 176 kts 25°
2026-04-22 09:53 22.56323 120.51887 3261 ft 142 kts 340°
2026-04-22 09:53 22.57079 120.51301 3070 ft 144 kts 302°
2026-04-22 09:53 22.57505 120.50218 2937 ft 166 kts 277°
2026-04-22 09:54 22.57518 120.48962 3065 ft 167 kts 264°
2026-04-22 09:54 22.57468 120.47690 3123 ft 172 kts 274°
2026-04-22 09:54 22.57456 120.46359 3035 ft 183 kts 265°
2026-04-22 09:54 22.57369 120.44927 2681 ft 210 kts 269°
2026-04-22 09:55 22.57418 120.43185 1633 ft 253 kts 270°
2026-04-22 09:55 22.57504 120.41295 1142 ft 247 kts 271°
2026-04-22 09:55 22.57606 120.39512 775 ft 216 kts 270°
2026-04-22 09:55 22.57640 120.38032 374 ft 180 kts 269°
2026-04-22 09:56 22.57666 120.36804 165 ft 148 kts 269°
2026-04-22 09:56 22.57687 120.35763 37 ft 136 kts 267°
2026-04-22 09:56 22.57706 120.35037 38 ft 64 kts 271°
2026-04-22 09:56 22.57718 120.34643 37 ft 51 kts 271°
2026-04-22 09:57 22.57728 120.34316 33 ft 29 kts 271°
2026-04-22 09:57 22.57688 120.34137 31 ft 23 kts 202°
2026-04-22 09:57 22.57532 120.34125 33 ft 20 kts 182°
2026-04-22 09:57 22.57407 120.34079 33 ft 19 kts 223°
2026-04-22 09:58 22.57295 120.34048 34 ft 10 kts 187°
2026-04-22 09:58 22.57272 120.33997 34 ft 8 kts 278°
2026-04-22 09:58 22.57273 120.33969 34 ft 0 kts 271°